Flag for Belarus Weather past 2 weeks in Gomel, Belarus

Now
55 °F

Partly sunny.


Feels Like: 52 °F
Forecast: 41 / 59 °F
Wind: 13 mph from Northeast

Location: Gomel'


UV Index: 0 (Low)

Visibility: N/A


Pressure: 30.12 "Hg

Humidity: 59%

Dew point: 41 °F

Location of GomelLocation

Historic Weather in Gomel

°F

Gomel temperature yesterday

Maximum temperature yesterday: 52 °F (at 2:00 PM)
Minimum temperature yesterday: 41 °F (at 1:00 AM)
Average temperature yesterday: 48 °F

Past Weeks' High & Low Weather Summary

 TemperatureHumidityPressure
High64 °F (Apr 8, 4:00 PM)100% (Apr 9, 11:00 AM)30.33 "Hg (Apr 9, 11:00 AM)
Low25 °F (Apr 5, 6:30 AM)21% (Apr 6, 5:00 PM)29.65 "Hg (Apr 15, 6:30 AM)
Average44 °F65%29.99 "Hg
* Reported Apr 1 4:00 PM — Apr 16 4:30 PM, Gomel, Weather by CustomWeather, © 2014

Note: Actual official high and low records may vary slightly from our data, if they occured in-between our weather recording intervals... More about our weather records

Advertising

Historic Weather Conditions — Data for Previous 24 hours

 ConditionsComfort  
Time TempWeatherWind HumidityBarometerVisibility
4:30 PM
Apr 16
57 °FBroken clouds.10 mph55%30.09 "HgN/A
4:00 PM57 °FBroken clouds.13 mph55%30.09 "HgN/A
3:30 PM57 °FBroken clouds.13 mph55%30.09 "HgN/A
3:00 PM57 °FBroken clouds.10 mph55%30.09 "HgN/A
2:30 PM57 °FBroken clouds.8 mph59%30.09 "HgN/A
1:30 PM55 °FPartly sunny.6 mph63%30.07 "HgN/A
1:00 PM55 °FPartly sunny.8 mph63%30.07 "HgN/A
12:30 PM52 °FPartly sunny.6 mph72%30.07 "HgN/A
12:00 PM52 °FPartly sunny.3 mph72%30.07 "HgN/A
11:30 AM50 °FBroken clouds.6 mph71%30.04 "HgN/A
11:00 AM50 °FBroken clouds.6 mph71%30.04 "HgN/A
10:30 AM46 °FPartly sunny.6 mph76%30.04 "HgN/A
10:00 AM46 °FSunny.3 mph76%30.04 "Hg10 mi
9:30 AM45 °FPartly sunny.3 mph81%30.01 "HgN/A
9:00 AM45 °FPartly sunny.3 mph81%30.01 "HgN/A
8:30 AM41 °FPartly sunny.1 mph93%30.01 "Hg6 mi
8:00 AM41 °FBroken clouds.1 mph93%29.98 "Hg5 mi
7:30 AM41 °FBroken clouds.1 mph93%29.98 "Hg4 mi
7:00 AM41 °FBroken clouds.No wind93%29.98 "Hg4 mi
6:30 AM43 °FFog.1 mph93%29.95 "Hg3 mi
6:00 AM43 °FFog.3 mph93%29.95 "Hg3 mi
5:30 AM43 °FFog.1 mph93%29.95 "Hg3 mi
5:00 AM43 °FClear.1 mph93%29.92 "Hg4 mi
4:00 AM45 °FClear.3 mph87%29.92 "Hg5 mi
3:00 AM45 °FClear.3 mph87%29.92 "Hg10 mi
2:00 AM45 °FPartly cloudy.3 mph87%29.89 "HgN/A
1:30 AM46 °FPassing clouds.3 mph82%29.89 "HgN/A
1:00 AM46 °FMostly cloudy.3 mph82%29.89 "HgN/A
12:30 AM46 °FMostly cloudy.3 mph82%29.89 "HgN/A
12:00 AM46 °FMostly cloudy.3 mph82%29.89 "HgN/A
11:00 PM
Apr 15
46 °FMostly cloudy.6 mph82%29.86 "HgN/A
10:00 PM48 °FPassing clouds.6 mph76%29.86 "HgN/A
9:30 PM48 °FPartly cloudy.6 mph76%29.86 "HgN/A
9:00 PM48 °FPassing clouds.3 mph76%29.86 "HgN/A
8:30 PM50 °FPartly sunny.3 mph71%29.86 "HgN/A
8:00 PM50 °FPartly sunny.3 mph71%29.86 "HgN/A
7:30 PM50 °FPartly sunny.3 mph71%29.83 "HgN/A
7:00 PM50 °FPartly sunny.6 mph71%29.83 "HgN/A
6:30 PM52 °FPartly sunny.8 mph62%29.83 "HgN/A
6:00 PM52 °FBroken clouds.6 mph62%29.80 "HgN/A
5:30 PM52 °FBroken clouds.6 mph67%29.80 "HgN/A
5:00 PM52 °FMostly cloudy.10 mph67%29.80 "HgN/A
Weather by CustomWeather, © 2014

See weather overview